North Las Vegas, NV

11:20 PM PDT on October 22, 2017 (GMT -0700)
North Las Vegas

Weather History for KVGT - January, 2014

Change the Weather History Date:

Friday, January 24, 2014

  Actual Average Record
Temperature  
Mean Temperature 54 °F 49 °F  
Max Temperature 61 °F 59 °F 69 °F (2003)
Min Temperature 48 °F 39 °F 33 °F (2002)
Degree Days  
Heating Degree Days 10 16  
Month to date heating degree days 420  
Since 1 July heating degree days 1300  
Cooling Degree Days 0 0  
Month to date cooling degree days 0  
Year to date cooling degree days 0  
Growing Degree Days 4 (Base 50)    
Moisture  
Dew Point 16 °F    
Average Humidity 23    
Maximum Humidity 33    
Minimum Humidity 15    
Precipitation  
Precipitation 0.00 in 0.02 in 0.04 in (2008)
Month to date precipitation 0.58  
Year to date precipitation 0.58  
Sea Level Pressure  
Sea Level Pressure 30.41 in    
Wind  
Wind Speed 5 mph (NNW)    
Max Wind Speed 10 mph    
Max Gust Speed -    
Visibility 10 miles    
Events      
T = Trace of Precipitation, MM = Missing Value Source: NWS Daily Summary

Daily Weather History Graph

Daily Weather History Graph

Search for Another Location

Airport or City:

Trip Planner

Search our weather history database for the weather conditions in past years. The results will help you decide how hot, cold, wet, or windy it might be!

Date:

Astronomy

Jan. 24, 2014 Rise Set
Actual Time 6:47 AM PST 4:59 PM PST
Civil Twilight 6:19 AM PST 5:26 PM PST
Nautical Twilight 5:48 AM PST 5:57 PM PST
Astronomical Twilight 5:18 AM PST 6:28 PM PST
Moon 12:21 AM PST (1/24) 11:18 AM PST (1/24)
Length of Visible Light 11h 06m
Length of Day
10h 11m
Last Quarter, 43% of the Moon is Illuminated
Jan 24
Last Quarter
Jan 30
New
Feb 6
First Quarter
Feb 14
Full
Feb 22
Last Quarter

Hourly Weather History & Observations

Time (PST) Temp. Dew Point Humidity Pressure Visibility Wind Dir Wind Speed Gust Speed Precip Events Conditions
12:53 AM 55.9 °F 18.0 °F 23% 30.36 in 10.0 mi East 10.4 mph - N/A   Clear
1:53 AM 54.0 °F 19.0 °F 25% 30.39 in 10.0 mi NW 8.1 mph - N/A   Clear
2:53 AM 51.1 °F 19.0 °F 28% 30.40 in 10.0 mi Calm Calm - N/A   Clear
3:53 AM 48.9 °F 19.9 °F 32% 30.41 in 10.0 mi NNW 5.8 mph - N/A   Clear
4:53 AM 50.0 °F 19.0 °F 29% 30.42 in 10.0 mi North 6.9 mph - N/A   Clear
5:53 AM 48.9 °F 19.0 °F 31% 30.43 in 10.0 mi North 9.2 mph - N/A   Clear
6:53 AM 48.0 °F 18.0 °F 30% 30.45 in 10.0 mi North 5.8 mph - N/A   Clear
7:53 AM 48.0 °F 19.9 °F 33% 30.47 in 10.0 mi Calm Calm - N/A   Clear
8:53 AM 52.0 °F 16.0 °F 24% 30.48 in 10.0 mi NNW 10.4 mph - N/A   Clear
9:53 AM 55.0 °F 15.1 °F 21% 30.50 in 10.0 mi North 5.8 mph - N/A   Clear
10:53 AM 57.0 °F 14.0 °F 18% 30.48 in 10.0 mi Variable 3.5 mph - N/A   Clear
11:53 AM 59.0 °F 14.0 °F 17% 30.44 in 10.0 mi Calm Calm - N/A   Clear
12:53 PM 59.0 °F 14.0 °F 17% 30.41 in 10.0 mi Calm Calm - N/A   Clear
1:53 PM 60.1 °F 12.9 °F 16% 30.39 in 10.0 mi NW 3.5 mph - N/A   Clear
2:53 PM 60.1 °F 12.9 °F 16% 30.39 in 10.0 mi Calm Calm - N/A   Clear
3:53 PM 61.0 °F 12.9 °F 15% 30.38 in 10.0 mi Calm Calm - N/A   Clear
4:53 PM 60.1 °F 12.9 °F 16% 30.38 in 10.0 mi Calm Calm - N/A   Clear
5:53 PM 57.0 °F 17.1 °F 21% 30.39 in 10.0 mi WNW 4.6 mph - N/A   Clear
6:53 PM 54.0 °F 18.0 °F 24% 30.39 in 10.0 mi NW 5.8 mph - N/A   Clear
7:53 PM 53.1 °F 18.0 °F 25% 30.39 in 10.0 mi NNW 6.9 mph - N/A   Clear
8:53 PM 55.0 °F 15.1 °F 21% 30.38 in 10.0 mi North 5.8 mph - N/A   Clear
9:53 PM 54.0 °F 15.1 °F 22% 30.39 in 10.0 mi NNW 4.6 mph - N/A   Clear
10:53 PM 52.0 °F 18.0 °F 26% 30.39 in 10.0 mi Calm Calm - N/A   Clear
11:53 PM 55.0 °F 12.9 °F 19% 30.37 in 10.0 mi Calm Calm - N/A   Clear